Home   Weather   Emmerich am Rhein   Past weeks

Flag for Germany Past Weather in Emmerich am Rhein, North Rhine-Westphalia, Germany — Yesterday and Last 2 Weeks

Now
46 °F

Light rain. Overcast.


Feels Like: 43 °F
Forecast: 38 / 46 °F
Wind: 7 mph from West

Location: Deelen

Current Time: Feb 23, 2017 at 4:00:02 am

Latest Report: Feb 23, 2017 at 3:25 am


Visibility: 2 mi

Pressure: 29.59 "Hg

Humidity: 93%

Dew Point: 45 °F

Location of Emmerich am RheinLocation

Past Weather in Emmerich am Rhein — Graph

°F

Emmerich am Rhein Temperature Yesterday

Maximum temperature yesterday: 52 °F (at 1:25 am)
Minimum temperature yesterday: 46 °F (at 3:55 pm)
Average temperature yesterday: 49 °F

High & Low Weather Summary for the Past Weeks

 TemperatureHumidityPressure
High57 °F (Feb 15, 2:25 pm)100% (Feb 8, 2:25 am)30.51 "Hg (Feb 8, 2:25 am)
Low25 °F (Feb 9, 10:25 pm)47% (Feb 15, 12:55 pm)29.62 "Hg (Feb 22, 2:25 pm)
Average39 °F86%30.20 "Hg
* Reported Feb 8 2:25 am — Feb 23 2:25 am, Emmerich am Rhein, Weather by CustomWeather, © 2017

Note: Actual official high and low records may vary slightly from our data, if they occured in-between our weather recording intervals... More about our weather records

Advertising

Emmerich am Rhein Weather History for the Previous 24 Hours

Scroll right to see more
 ConditionsComfort  
Time TempWeatherWind HumidityBarometerVisibility
2:25 am
Thu, Feb 23
46 °FDrizzle. Mostly cloudy.7 mph100%29.62 "Hg6 mi
1:55 am46 °FPartly cloudy.10 mph100%29.62 "Hg3 mi
1:25 am46 °FLight rain. Partly cloudy.9 mph100%29.65 "Hg2 mi
12:55 am48 °FPartly cloudy.9 mph94%29.65 "Hg3 mi
12:25 am48 °FLight rain. Mostly cloudy.9 mph94%29.65 "Hg3 mi
11:55 pm
Wed, Feb 22
46 °FDrizzle. Overcast.8 mph100%29.65 "Hg4 mi
11:25 pm46 °FLight rain. Partly cloudy.8 mph100%29.65 "Hg6 mi
10:55 pm46 °FPartly cloudy.10 mph100%29.65 "Hg6 mi
10:25 pm46 °FPartly cloudy.12 mph93%29.65 "Hg6 mi
9:55 pm46 °FPartly cloudy.13 mph93%29.65 "HgN/A
9:25 pm46 °FPartly cloudy.13 mph93%29.65 "HgN/A
8:55 pm46 °FPartly cloudy.14 mph93%29.65 "HgN/A
8:25 pm46 °FLight rain. Partly cloudy.14 mph93%29.65 "Hg6 mi
7:55 pm46 °FLight rain. Partly cloudy.14 mph93%29.65 "Hg6 mi
7:25 pm46 °FLight rain. Partly cloudy.13 mph93%29.65 "HgN/A
6:55 pm46 °FLight rain. Partly cloudy.13 mph93%29.65 "HgN/A
6:25 pm46 °FPassing clouds.13 mph93%29.65 "HgN/A
5:55 pm48 °FLight rain. Broken clouds.13 mph94%29.65 "Hg6 mi
5:25 pm46 °FLight rain. Partly sunny.10 mph93%29.65 "HgN/A
4:55 pm46 °FSprinkles. Broken clouds.8 mph93%29.65 "Hg6 mi
4:25 pm46 °FRain. Partly sunny.12 mph93%29.65 "Hg4 mi
3:55 pm46 °FRain. Broken clouds.8 mph100%29.65 "Hg3 mi
3:25 pm48 °FRain. Broken clouds.14 mph94%29.62 "Hg3 mi
2:55 pm50 °FSprinkles. Broken clouds.18 mph94%29.62 "Hg3 mi
2:25 pm50 °FDrizzle. Broken clouds.20 mph94%29.62 "HgN/A
1:55 pm50 °FDrizzle. Partly sunny.18 mph94%29.65 "HgN/A
1:25 pm50 °FDrizzle. Mostly cloudy.20 mph94%29.65 "HgN/A
12:55 pm50 °FDrizzle. Mostly cloudy.22 mph88%29.65 "HgN/A
12:25 pm50 °FMostly cloudy.20 mph88%29.68 "HgN/A
11:55 am50 °FMostly cloudy.17 mph88%29.68 "HgN/A
11:25 am50 °FOvercast.20 mph88%29.68 "HgN/A
10:55 am50 °FMostly cloudy.20 mph88%29.68 "HgN/A
10:25 am50 °FMostly cloudy.18 mph88%29.68 "HgN/A
9:55 am50 °FLow clouds.21 mph88%29.68 "HgN/A
9:25 am50 °FLow clouds.20 mph88%29.68 "HgN/A
8:55 am50 °FMostly cloudy.17 mph88%29.68 "HgN/A
8:25 am48 °FMore clouds than sun.18 mph94%29.68 "HgN/A
7:55 am50 °FLight rain. Cloudy.18 mph94%29.68 "Hg5 mi
7:25 am48 °FPartly cloudy.18 mph100%29.68 "Hg4 mi
6:55 am48 °FLight rain. Mostly cloudy.21 mph100%29.68 "Hg4 mi
6:25 am48 °FLight rain. Partly cloudy.21 mph94%29.68 "Hg4 mi
5:55 am48 °FLight rain. Mostly cloudy.22 mph94%29.68 "Hg4 mi
5:25 am50 °FLight rain. Overcast.18 mph88%29.68 "Hg4 mi
4:55 am50 °FDrizzle. Mostly cloudy.21 mph88%29.71 "Hg5 mi
4:25 am50 °FMostly cloudy.23 mph88%29.71 "HgN/A
Weather by CustomWeather, © 2017

See weather overviewHow to use our weather pages